Location: Czekan�w
(50.3488°N, 18.7344°E)
Time: 03:46:00
(UTC+00:00)

Cosmos 1943 Rocket - Pass Details

Date: 17 February 2020
Orbit: 813 x 842 km, 71.0° (Epoch: 02 April)

Event Time Altitude Azimuth Distance (km) Brightness Sun altitude
Exits shadow 04:31:02 - 319° (NW) 2,594 4.3 -13.8°
Reaches altitude 10° 04:31:33 10° 317° (NW) 2,414 4.2 -13.7°
Maximum altitude 04:36:32 36° 253° (WSW) 1,270 2.7 -12.9°
Drops below altitude 10° 04:41:29 10° 188° (S) 2,398 4.5 -12.1°
Sets 04:44:04 0° 180° (S) 3,327 5.4 -11.7°
